QPF
0.00 0.00 0.00 0.00 0.00 0.00 0.00 0.00 0.00 0.00 0.00 0.00 0.00 0.00 0.00 0.00 0.00 0.00 0.00 0.00 0.00 0.00 0.00 0.00 0.00 0.00 0.00 0.00 0.00 0.00 0.00 0.00 0.00 0.00 0.00 0.00 0.00 0.00 0.00 0.00 0.00 0.01 0.00 0.01
0.00 0.00 0.00 0.00 0.00 0.00 0.00 0.00 0.00 0.00 0.00 0.00 0.00 0.00 0.00 0.00 0.00 0.00 0.00 0.00 0.00 0.00 0.00 0.00 0.00 0.00 0.00 0.00 0.00 0.00 0.00 0.00 0.00 0.00 0.00 0.00 0.00 0.00 0.00 0.01 0.00 0.01 0.01 0.02
0.00 0.00 0.00 0.00 0.00 0.00 0.00 0.00 0.00 0.00 0.00 0.00 0.00 0.00 0.00 0.00 0.00 0.00 0.00 0.00 0.00 0.00 0.00 0.00 0.00 0.00 0.00 0.00 0.00 0.00 0.00 0.00 0.00 0.00 0.00 0.00 0.00 0.00 0.00 0.00 0.01 0.01 0.01 0.01
0.00 0.00 0.00 0.00 0.00 0.00 0.00 0.00 0.00 0.00 0.00 0.00 0.00 0.00 0.00 0.00 0.00 0.00 0.00 0.00 0.00 0.00 0.00 0.00 0.00 0.00 0.00 0.00 0.00 0.00 0.00 0.00 0.00 0.00 0.00 0.00 0.00 0.00 0.00 0.01 0.01 0.01 0.01 0.01
0.00 0.00 0.00 0.00 0.00 0.00 0.00 0.00 0.00 0.00 0.00 0.00 0.00 0.00 0.00 0.00 0.00 0.00 0.00 0.00 0.00 0.00 0.00 0.00 0.00 0.00 0.00 0.00 0.00 0.00 0.00 0.00 0.00 0.00 0.00 0.00 0.00 0.00 0.00 0.01 0.01 0.00 0.01 0.00
0.00 0.00 0.00 0.00 0.00 0.00 0.00 0.00 0.00 0.00 0.00 0.00 0.00 0.00 0.00 0.00 0.00 0.00 0.00 0.00 0.00 0.00 0.00 0.00 0.00 0.00 0.00 0.00 0.00 0.00 0.00 0.00 0.00 0.00 0.00 0.00 0.00 0.00 0.01 0.01 0.01 0.00 0.01 0.01
0.00 0.00 0.00 0.00 0.00 0.00 0.00 0.00 0.00 0.00 0.00 0.00 0.00 0.00 0.00 0.00 0.00 0.00 0.00 0.00 0.00 0.00 0.00 0.00 0.00 0.00 0.00 0.00 0.00 0.00 0.00 0.00 0.00 0.00 0.00 0.00 0.00 0.00 0.00 0.01 0.01 0.01 0.02 0.01
0.00 0.00 0.00 0.00 0.00 0.00 0.00 0.00 0.00 0.00 0.00 0.00 0.00 0.00 0.00 0.00 0.00 0.00 0.00 0.00 0.00 0.00 0.00 0.00 0.00 0.00 0.00 0.00 0.00 0.00 0.00 0.00 0.00 0.00 0.00 0.00 0.00 0.00 0.00 0.01 0.01 0.01 0.03 0.02
0.00 0.00 0.00 0.00 0.00 0.00 0.00 0.00 0.00 0.00 0.00 0.00 0.00 0.00 0.00 0.00 0.00 0.00 0.00 0.00 0.00 0.00 0.00 0.00 0.00 0.00 0.00 0.00 0.00 0.00 0.00 0.00 0.00 0.00 0.00 0.00 0.00 0.00 0.00 0.00 0.00 0.00 0.01 0.02
0.00 0.00 0.00 0.00 0.00 0.00 0.00 0.00 0.00 0.00 0.00 0.00 0.00 0.00 0.00 0.00 0.00 0.00 0.00 0.00 0.00 0.00 0.00 0.00 0.00 0.00 0.00 0.00 0.00 0.00 0.00 0.00 0.00 0.00 0.00 0.00 0.00 0.00 0.00 0.00 0.00 0.00 0.00 0.00
0.00 0.00 0.00 0.00 0.00 0.00 0.00 0.00 0.00 0.00 0.00 0.00 0.00 0.00 0.00 0.00 0.00 0.00 0.00 0.00 0.00 0.00 0.00 0.00 0.00 0.00 0.00 0.00 0.00 0.00 0.00 0.00 0.00 0.00 0.00 0.00 0.00 0.00 0.00 0.00 0.00 0.00 0.00 0.00
0.00 0.00 0.00 0.00 0.00 0.00 0.00 0.00 0.00 0.00 0.00 0.00 0.00 0.00 0.00 0.00 0.00 0.00 0.00 0.00 0.00 0.00 0.00 0.00 0.00 0.00 0.00 0.00 0.00 0.00 0.00 0.00 0.00 0.00 0.00 0.00 0.00 0.00 0.00 0.00 0.00 0.00 0.00 0.00
0.00 0.00 0.00 0.00 0.00 0.00 0.00 0.00 0.00 0.00 0.00 0.00 0.00 0.00 0.00 0.00 0.00 0.00 0.00 0.00 0.00 0.00 0.00 0.00 0.00 0.00 0.00 0.00 0.00 0.00 0.00 0.00 0.00 0.00 0.00 0.00 0.00 0.00 0.00 0.00 0.00 0.00 0.00 0.00
0.00 0.00 0.00 0.00 0.00 0.00 0.00 0.00 0.00 0.00 0.00 0.00 0.00 0.00 0.00 0.00 0.00 0.00 0.00 0.00 0.00 0.00 0.00 0.00 0.00 0.00 0.00 0.00 0.00 0.00 0.00 0.00 0.00 0.00 0.00 0.00 0.00 0.00 0.00 0.00 0.00 0.00 0.00 0.00
0.00 0.00 0.00 0.00 0.00 0.00 0.00 0.00 0.00 0.00 0.00 0.00 0.00 0.00 0.00 0.00 0.00 0.00 0.00 0.00 0.00 0.00 0.00 0.00 0.00 0.00 0.00 0.00 0.00 0.00 0.00 0.00 0.00 0.00 0.00 0.00 0.00 0.00 0.00 0.00 0.00 0.00 0.00 0.00
0.00 0.00 0.00 0.00 0.00 0.00 0.00 0.00 0.00 0.00 0.00 0.00 0.00 0.00 0.00 0.00 0.00 0.00 0.00 0.00 0.00 0.00 0.00 0.00 0.00 0.00 0.00 0.00 0.00 0.00 0.00 0.00 0.00 0.00 0.00 0.00 0.00 0.00 0.00 0.00 0.00 0.00 0.00 0.00
0.00 0.00 0.00 0.00 0.00 0.00 0.00 0.00 0.00 0.00 0.00 0.00 0.00 0.00 0.00 0.00 0.00 0.00 0.00 0.00 0.00 0.00 0.00 0.00 0.00 0.00 0.00 0.00 0.00 0.00 0.00 0.00 0.00 0.00 0.00 0.00 0.00 0.00 0.00 0.00 0.00 0.00 0.00 0.00
0.00 0.00 0.00 0.00 0.00 0.00 0.00 0.00 0.00 0.00 0.00 0.00 0.00 0.00 0.00 0.00 0.00 0.00 0.00 0.00 0.00 0.00 0.00 0.00 0.00 0.00 0.00 0.00 0.00 0.00 0.00 0.00 0.00 0.00 0.00 0.00 0.00 0.00 0.00 0.00 0.00 0.00 0.00 0.00
0.00 0.00 0.00 0.00 0.00 0.00 0.00 0.00 0.00 0.00 0.00 0.00 0.00 0.00 0.00 0.00 0.00 0.00 0.00 0.00 0.00 0.00 0.00 0.00 0.00 0.00 0.00 0.00 0.00 0.00 0.00 0.00 0.00 0.00 0.00 0.00 0.00 0.00 0.00 0.00 0.00 0.00 0.00 0.00
0.00 0.00 0.00 0.00 0.00 0.00 0.00 0.00 0.00 0.00 0.00 0.00 0.00 0.00 0.00 0.00 0.00 0.00 0.00 0.00 0.00 0.00 0.00 0.00 0.00 0.00 0.00 0.00 0.00 0.00 0.00 0.00 0.00 0.00 0.00 0.00 0.00 0.00 0.00 0.00 0.00 0.00 0.00 0.00
0.00 0.00 0.00 0.00 0.00 0.00 0.00 0.00 0.00 0.00 0.00 0.00 0.00 0.00 0.00 0.00 0.00 0.00 0.00 0.00 0.00 0.00 0.00 0.00 0.00 0.00 0.00 0.00 0.00 0.00 0.00 0.00 0.00 0.00 0.00 0.00 0.00 0.00 0.00 0.00 0.00 0.00 0.00 0.00
0.00 0.00 0.00 0.00 0.00 0.00 0.00 0.00 0.00 0.00 0.00 0.00 0.00 0.00 0.00 0.00 0.00 0.00 0.00 0.00 0.00 0.00 0.00 0.00 0.00 0.00 0.00 0.00 0.00 0.00 0.00 0.00 0.00 0.00 0.00 0.00 0.00 0.00 0.00 0.00 0.00 0.00 0.00 0.00
0.00 0.00 0.00 0.00 0.00 0.00 0.00 0.00 0.00 0.00 0.00 0.00 0.00 0.00 0.00 0.00 0.00 0.00 0.00 0.00 0.00 0.00 0.00 0.00 0.00 0.00 0.00 0.00 0.00 0.00 0.00 0.00 0.00 0.00 0.00 0.00 0.00 0.00 0.00 0.00 0.00 0.00 0.00 0.00
0.00 0.00 0.00 0.00 0.00 0.00 0.00 0.00 0.00 0.00 0.00 0.00 0.00 0.00 0.00 0.00 0.00 0.00 0.00 0.00 0.00 0.00 0.00 0.00 0.00 0.00 0.00 0.00 0.00 0.00 0.00 0.00 0.00 0.00 0.00 0.00 0.00 0.00 0.00 0.00 0.00 0.00 0.00 0.00
0.00 0.00 0.00 0.00 0.00 0.00 0.00 0.00 0.00 0.00 0.00 0.00 0.00 0.00 0.00 0.00 0.00 0.00 0.00 0.00 0.00 0.00 0.00 0.00 0.00 0.00 0.00 0.00 0.00 0.00 0.00 0.00 0.00 0.00 0.00 0.00 0.00 0.00 0.00 0.00 0.00 0.00 0.00 0.00
0.00 0.00 0.00 0.00 0.00 0.00 0.00 0.00 0.00 0.00 0.00 0.00 0.00 0.00 0.00 0.00 0.00 0.00 0.00 0.00 0.00 0.00 0.00 0.00 0.00 0.00 0.00 0.00 0.00 0.00 0.00 0.00 0.00 0.00 0.00 0.00 0.00 0.00 0.00 0.00 0.00 0.00 0.00 0.00
MSLP
1020.85 1022.02 1023.84 1024.37 1024.39 1024.33 1024.45 1024.85 1025.84 1027.22 1028.31 1029.25 1030.32 1031.25 1031.90 1032.20 1032.02 1032.00 1032.10 1031.85 1031.39 1030.94 1030.22 1029.67 1028.94 1028.31 1027.78 1027.14 1026.66 1026.20 1025.54 1024.91 1024.02 1023.18 1022.24 1021.31 1020.50 1019.79 1019.02 1018.18 1017.60 1016.93 1016.37 1015.76
1022.05 1023.68 1024.51 1024.67 1024.53 1024.52 1024.75 1025.31 1026.42 1027.67 1028.52 1029.34 1030.84 1031.47 1031.95 1032.19 1032.30 1032.70 1032.63 1032.30 1031.90 1030.96 1030.24 1029.43 1028.78 1028.21 1027.78 1027.17 1026.63 1026.10 1025.48 1024.73 1024.06 1023.30 1022.42 1021.64 1020.66 1019.72 1018.82 1018.08 1017.37 1016.62 1016.12 1015.44
1023.22 1024.75 1024.59 1024.72 1025.16 1025.11 1025.39 1025.89 1026.67 1027.61 1028.70 1029.69 1030.78 1031.34 1031.96 1032.22 1032.53 1032.65 1032.67 1032.57 1031.92 1031.43 1030.53 1029.60 1028.74 1028.28 1027.80 1027.28 1026.63 1026.22 1025.49 1024.73 1024.04 1023.26 1022.20 1021.38 1020.67 1019.83 1018.87 1018.14 1017.27 1016.55 1015.93 1015.27
1024.57 1024.94 1025.00 1025.17 1025.69 1025.96 1026.04 1026.44 1026.77 1027.41 1028.37 1029.83 1030.61 1031.30 1032.02 1032.60 1032.51 1032.91 1032.60 1032.25 1032.01 1031.36 1030.60 1030.03 1029.18 1028.39 1027.92 1027.52 1027.06 1026.36 1025.54 1024.90 1024.03 1023.14 1022.38 1021.64 1020.82 1019.94 1019.04 1018.20 1017.32 1016.45 1015.72 1015.03
1025.34 1025.44 1025.53 1025.76 1026.19 1026.23 1026.50 1026.47 1026.72 1027.40 1028.30 1029.34 1030.34 1031.46 1032.24 1032.91 1032.75 1032.90 1032.72 1032.45 1032.05 1031.61 1030.94 1030.09 1029.48 1028.69 1028.24 1027.71 1027.06 1026.37 1025.76 1025.15 1024.21 1023.33 1022.55 1021.81 1020.96 1020.21 1019.20 1018.18 1017.29 1016.38 1015.59 1014.83
1025.45 1025.66 1026.03 1026.35 1026.46 1026.46 1026.55 1026.78 1027.08 1027.68 1028.16 1028.99 1030.07 1031.24 1032.14 1033.00 1033.72 1033.43 1033.05 1032.64 1032.06 1031.51 1030.94 1030.49 1029.89 1028.93 1028.36 1027.80 1027.12 1026.59 1025.91 1025.08 1024.14 1023.24 1022.55 1021.87 1021.08 1020.17 1019.11 1018.02 1017.07 1016.37 1015.50 1014.66
1025.84 1026.18 1026.42 1026.67 1026.85 1026.84 1026.86 1027.16 1027.48 1028.02 1028.27 1029.07 1030.17 1031.12 1031.49 1033.02 1033.73 1033.82 1033.41 1032.88 1032.25 1031.68 1031.00 1030.42 1029.69 1028.93 1028.38 1027.77 1027.19 1026.55 1025.89 1025.06 1024.20 1023.30 1022.59 1021.92 1021.19 1020.40 1019.37 1018.31 1017.26 1016.39 1015.49 1014.56
1026.58 1026.58 1027.12 1027.42 1028.19 1028.41 1028.43 1028.45 1028.84 1029.32 1029.50 1029.83 1030.22 1030.66 1031.69 1032.78 1033.51 1033.54 1033.36 1032.98 1032.44 1031.82 1031.15 1030.56 1029.96 1029.27 1028.64 1028.06 1027.37 1026.57 1025.91 1025.23 1024.39 1023.55 1022.80 1022.07 1021.40 1020.56 1019.64 1018.71 1017.65 1016.83 1015.79 1014.77
1026.89 1027.30 1027.62 1028.00 1028.52 1029.06 1028.93 1029.62 1030.18 1030.11 1030.73 1030.90 1030.02 1030.85 1031.92 1032.81 1032.94 1033.21 1033.21 1032.95 1032.41 1031.94 1031.35 1030.69 1030.13 1029.51 1028.82 1028.21 1027.51 1026.78 1026.14 1025.56 1024.55 1023.74 1023.01 1022.14 1021.39 1020.61 1019.80 1018.86 1017.95 1016.88 1015.84 1014.82
1027.00 1027.49 1027.93 1028.29 1028.76 1029.30 1029.53 1030.66 1031.04 1031.12 1031.65 1031.51 1030.55 1031.21 1031.91 1032.75 1032.98 1033.38 1033.09 1032.92 1032.64 1031.97 1031.42 1030.85 1030.25 1029.64 1028.98 1028.40 1027.67 1027.06 1026.46 1025.78 1024.84 1024.02 1023.19 1022.35 1021.59 1020.75 1019.97 1019.12 1018.14 1017.08 1015.90 1014.84
1027.10 1027.39 1028.40 1028.51 1029.55 1030.27 1030.75 1031.27 1032.22 1032.78 1033.31 1033.23 1032.86 1031.10 1031.75 1032.80 1033.37 1033.65 1033.57 1033.29 1032.70 1032.16 1031.53 1030.90 1030.31 1029.74 1029.06 1028.54 1027.80 1027.13 1026.41 1025.69 1024.84 1024.10 1023.33 1022.54 1021.66 1020.86 1020.11 1019.24 1018.25 1017.22 1016.06 1014.99
1027.54 1027.84 1028.53 1029.39 1030.03 1030.54 1031.23 1031.91 1032.42 1033.24 1034.59 1034.95 1034.65 1031.92 1031.71 1032.58 1033.26 1033.72 1033.57 1033.32 1032.85 1032.27 1031.71 1031.06 1030.35 1029.76 1029.08 1028.52 1027.83 1027.14 1026.38 1025.68 1024.99 1024.28 1023.52 1022.68 1021.83 1020.97 1020.19 1019.28 1018.39 1017.38 1016.34 1015.13
1027.65 1028.22 1028.85 1029.41 1030.44 1030.71 1031.41 1032.26 1033.04 1033.87 1034.50 1034.92 1034.67 1031.80 1031.96 1032.53 1033.05 1033.28 1033.17 1033.04 1032.57 1032.04 1031.49 1030.99 1030.28 1029.70 1029.14 1028.64 1027.96 1027.18 1026.43 1025.76 1025.06 1024.36 1023.68 1022.85 1022.01 1021.09 1020.26 1019.45 1018.63 1017.66 1016.58 1015.49
1027.75 1028.53 1028.62 1029.03 1029.24 1029.98 1031.32 1032.14 1033.06 1033.64 1034.55 1034.79 1033.60 1031.87 1031.89 1032.10 1032.83 1033.00 1033.28 1033.31 1033.01 1032.47 1031.72 1031.02 1030.35 1029.75 1029.27 1028.80 1028.14 1027.34 1026.54 1025.89 1025.17 1024.42 1023.76 1023.04 1022.20 1021.32 1020.57 1019.77 1018.91 1018.02 1016.98 1015.90
1028.39 1028.74 1028.87 1028.90 1029.15 1029.72 1030.34 1031.34 1032.45 1033.30 1033.44 1033.70 1032.44 1032.35 1031.48 1032.26 1033.05 1033.28 1033.56 1033.28 1032.81 1032.30 1031.80 1031.24 1030.48 1029.93 1029.41 1028.85 1028.22 1027.46 1026.72 1025.98 1025.32 1024.58 1023.91 1023.22 1022.49 1021.68 1020.91 1020.08 1019.11 1018.33 1017.43 1016.35
1029.16 1029.37 1029.32 1029.26 1029.35 1029.72 1030.06 1030.49 1031.39 1032.38 1032.81 1032.88 1032.52 1031.90 1031.47 1032.29 1032.89 1033.22 1033.36 1032.97 1032.67 1032.30 1031.94 1031.33 1030.72 1030.11 1029.50 1028.96 1028.33 1027.56 1026.85 1026.16 1025.55 1024.83 1024.16 1023.46 1022.67 1021.85 1021.15 1020.37 1019.45 1018.72 1017.94 1016.96
1029.76 1030.14 1030.33 1029.89 1029.56 1029.48 1029.44 1028.82 1029.85 1030.67 1031.09 1031.42 1031.71 1030.98 1031.75 1032.08 1032.56 1032.89 1033.07 1032.93 1032.73 1032.35 1031.83 1031.33 1030.81 1030.39 1029.82 1029.15 1028.51 1027.80 1027.11 1026.53 1025.88 1025.13 1024.43 1023.71 1022.92 1022.13 1021.36 1020.64 1019.82 1018.98 1018.22 1017.59
1030.10 1030.73 1031.07 1030.67 1029.80 1029.12 1027.70 1028.08 1028.66 1029.32 1029.64 1030.26 1030.46 1030.79 1031.52 1031.93 1032.48 1032.80 1032.99 1033.01 1032.71 1032.39 1031.94 1031.40 1030.91 1030.45 1029.93 1029.29 1028.66 1028.00 1027.37 1026.69 1026.05 1025.40 1024.70 1023.99 1023.22 1022.53 1021.65 1020.90 1020.18 1019.50 1018.58 1017.96
1030.06 1030.74 1031.77 1031.52 1030.26 1027.93 1027.55 1027.94 1028.42 1028.80 1028.83 1029.20 1029.81 1030.65 1031.39 1032.08 1032.51 1032.56 1032.79 1032.91 1032.76 1032.36 1031.78 1031.41 1030.96 1030.46 1029.92 1029.34 1028.72 1028.16 1027.51 1026.80 1026.22 1025.60 1025.01 1024.36 1023.62 1022.85 1022.12 1021.35 1020.55 1020.02 1019.31 1018.49
1030.64 1030.94 1031.08 1031.72 1030.41 1028.17 1026.70 1027.34 1027.94 1028.28 1028.70 1028.71 1029.51 1030.61 1031.42 1032.19 1032.45 1032.73 1032.81 1032.82 1032.56 1032.01 1031.64 1031.24 1030.92 1030.59 1030.07 1029.40 1028.90 1028.25 1027.62 1027.10 1026.45 1025.86 1025.35 1024.78 1024.06 1023.30 1022.49 1021.87 1021.09 1020.53 1019.84 1019.32
1030.65 1031.47 1031.49 1031.20 1029.92 1027.23 1026.62 1027.49 1028.19 1028.49 1028.51 1028.44 1029.53 1030.65 1031.42 1031.93 1032.21 1032.45 1032.69 1032.55 1032.36 1031.98 1031.68 1031.47 1031.07 1030.60 1030.23 1029.69 1029.01 1028.40 1027.81 1027.31 1026.86 1026.21 1025.60 1025.03 1024.39 1023.74 1023.04 1022.24 1021.61 1020.90 1020.43 1019.88
1028.61 1029.95 1030.54 1030.89 1029.55 1027.05 1026.81 1028.34 1028.17 1027.37 1027.97 1028.60 1029.90 1030.62 1031.25 1031.70 1032.13 1032.33 1032.42 1032.34 1032.10 1031.61 1031.35 1031.26 1031.09 1030.77 1030.36 1029.97 1029.22 1028.61 1027.99 1027.61 1027.03 1026.42 1025.73 1025.16 1024.69 1024.16 1023.54 1022.76 1022.01 1021.23 1020.56 1020.12
1027.58 1027.08 1027.29 1027.84 1025.99 1025.40 1025.89 1026.23 1026.68 1027.29 1027.87 1029.08 1029.94 1030.63 1031.08 1031.75 1032.19 1032.25 1032.28 1032.38 1032.15 1031.59 1031.31 1031.29 1031.02 1030.61 1030.10 1029.88 1029.34 1028.74 1028.30 1027.73 1027.16 1026.56 1025.90 1025.29 1024.89 1024.43 1023.95 1023.27 1022.47 1021.72 1020.98 1020.43
1026.20 1026.35 1026.60 1026.45 1025.19 1025.27 1025.82 1026.49 1026.94 1027.41 1028.08 1028.97 1029.77 1030.52 1031.00 1031.67 1032.04 1032.22 1032.35 1032.22 1032.00 1031.24 1031.18 1031.23 1030.91 1030.56 1030.19 1029.75 1029.29 1028.83 1028.47 1027.91 1027.33 1026.75 1026.20 1025.55 1024.95 1024.64 1024.21 1023.71 1023.12 1022.43 1021.67 1021.02
1025.51 1026.03 1025.71 1025.40 1024.57 1025.31 1025.50 1025.99 1026.52 1027.49 1028.43 1029.19 1029.93 1030.47 1030.89 1031.59 1031.94 1031.98 1032.12 1032.11 1031.70 1031.32 1031.29 1031.22 1030.91 1030.57 1030.29 1029.87 1029.35 1029.01 1028.61 1027.99 1027.45 1026.98 1026.52 1025.88 1025.30 1024.94 1024.54 1024.03 1023.57 1023.00 1022.61 1021.94
1024.09 1023.33 1023.61 1022.60 1022.08 1022.85 1023.17 1024.38 1025.96 1027.16 1028.23 1028.96 1029.56 1030.59 1031.04 1031.47 1031.72 1031.91 1032.09 1031.99 1031.62 1031.29 1031.21 1031.09 1030.93 1030.59 1030.29 1029.93 1029.46 1029.16 1028.72 1028.13 1027.72 1027.16 1026.65 1026.20 1025.73 1025.20 1024.88 1024.48 1023.76 1023.33 1022.98 1022.58
Thickness
5693 5683 5660 5653 5647 5643 5639 5636 5622 5602 5592 5578 5560 5546 5537 5528 5520 5505 5489 5474 5459 5449 5449 5446 5446 5444 5442 5441 5439 5437 5436 5433 5432 5430 5431 5432 5430 5429 5428 5427 5425 5425 5424 5425
5685 5663 5657 5651 5647 5644 5638 5629 5613 5596 5588 5573 5551 5542 5533 5521 5509 5486 5472 5457 5447 5449 5449 5450 5448 5446 5441 5440 5438 5435 5432 5430 5427 5424 5423 5421 5421 5421 5420 5418 5416 5414 5413 5413
5673 5660 5657 5657 5638 5638 5632 5625 5610 5604 5578 5563 5550 5545 5528 5514 5494 5479 5461 5448 5448 5445 5447 5447 5447 5444 5441 5438 5436 5431 5430 5428 5424 5422 5422 5421 5418 5414 5414 5411 5410 5408 5406 5405
5661 5657 5654 5649 5636 5628 5631 5611 5605 5595 5589 5582 5547 5568 5522 5498 5491 5472 5460 5451 5447 5447 5446 5443 5442 5442 5439 5434 5429 5427 5426 5424 5422 5420 5419 5415 5413 5412 5411 5408 5406 5403 5400 5400
5659 5652 5645 5643 5634 5626 5625 5612 5607 5591 5582 5567 5550 5546 5505 5484 5486 5472 5455 5447 5445 5443 5440 5440 5438 5439 5435 5431 5429 5427 5424 5420 5419 5416 5413 5411 5409 5406 5404 5403 5400 5397 5394 5392
5654 5650 5643 5637 5629 5626 5615 5613 5602 5584 5581 5583 5545 5540 5512 5485 5469 5457 5447 5442 5443 5441 5439 5435 5434 5436 5433 5429 5427 5424 5421 5418 5417 5415 5411 5407 5403 5400 5398 5395 5392 5387 5385 5383
5653 5645 5638 5630 5631 5622 5609 5608 5614 5610 5595 5586 5532 5529 5522 5481 5462 5446 5437 5437 5439 5439 5438 5436 5435 5435 5433 5430 5426 5423 5420 5418 5416 5414 5409 5404 5398 5391 5386 5379 5375 5371 5370 5372
5650 5656 5630 5625 5614 5607 5597 5593 5599 5599 5586 5572 5532 5544 5524 5480 5458 5442 5433 5433 5436 5436 5435 5434 5432 5432 5430 5426 5424 5423 5420 5416 5414 5410 5405 5399 5391 5384 5374 5363 5355 5350 5350 5353
5644 5640 5626 5618 5605 5597 5603 5588 5565 5563 5536 5539 5549 5524 5500 5479 5466 5445 5435 5434 5435 5435 5433 5432 5430 5429 5427 5424 5423 5421 5417 5411 5410 5406 5401 5396 5388 5379 5367 5355 5346 5343 5340 5340
5639 5640 5622 5617 5606 5594 5596 5570 5583 5559 5559 5570 5554 5516 5521 5484 5469 5446 5437 5434 5433 5434 5431 5430 5429 5428 5426 5423 5421 5417 5413 5409 5406 5403 5399 5393 5384 5374 5361 5349 5339 5336 5334 5333
5635 5635 5624 5616 5595 5588 5585 5576 5539 5535 5522 5548 5525 5555 5497 5478 5462 5441 5433 5433 5432 5431 5431 5430 5429 5427 5426 5422 5420 5417 5414 5410 5407 5403 5398 5391 5383 5372 5360 5347 5336 5330 5327 5327
5628 5618 5620 5604 5585 5578 5567 5559 5548 5557 5527 5469 5473 5525 5500 5477 5463 5442 5436 5432 5430 5431 5429 5429 5430 5427 5425 5423 5421 5418 5415 5411 5406 5402 5397 5391 5383 5373 5361 5349 5336 5329 5325 5326
5628 5619 5621 5617 5588 5576 5572 5551 5529 5511 5495 5484 5514 5553 5492 5477 5463 5449 5438 5437 5434 5434 5432 5430 5431 5428 5426 5423 5421 5419 5416 5411 5407 5404 5398 5392 5385 5376 5364 5352 5341 5332 5329 5328
5625 5603 5623 5623 5619 5585 5569 5555 5533 5529 5523 5495 5508 5531 5510 5493 5469 5454 5438 5433 5429 5430 5430 5430 5431 5430 5426 5423 5421 5418 5416 5411 5408 5405 5400 5394 5387 5378 5366 5355 5346 5339 5334 5333
5621 5627 5609 5600 5594 5584 5584 5565 5540 5516 5526 5531 5535 5503 5516 5490 5470 5453 5434 5432 5433 5432 5429 5429 5431 5429 5426 5423 5421 5419 5415 5412 5409 5406 5402 5396 5388 5378 5369 5361 5353 5345 5341 5338
5605 5614 5606 5608 5589 5582 5578 5572 5553 5537 5525 5514 5509 5513 5502 5486 5467 5455 5438 5438 5436 5433 5429 5428 5430 5427 5426 5424 5422 5421 5416 5412 5410 5406 5403 5398 5391 5384 5375 5367 5361 5352 5347 5344
5609 5598 5592 5616 5577 5578 5596 5583 5567 5553 5536 5535 5530 5532 5500 5493 5479 5461 5445 5437 5434 5431 5430 5430 5430 5427 5425 5424 5423 5420 5417 5411 5409 5406 5404 5400 5394 5387 5380 5373 5368 5362 5355 5349
5600 5588 5566 5586 5585 5613 5612 5577 5574 5571 5557 5538 5535 5523 5509 5495 5477 5460 5447 5436 5434 5431 5429 5430 5430 5427 5425 5424 5422 5420 5416 5413 5410 5408 5405 5402 5396 5389 5386 5379 5374 5367 5362 5356
5594 5583 5550 5589 5590 5615 5590 5579 5571 5574 5583 5548 5541 5526 5509 5492 5476 5470 5454 5440 5432 5432 5433 5431 5431 5429 5428 5425 5423 5421 5417 5416 5412 5410 5407 5402 5398 5393 5389 5383 5379 5371 5364 5361
5587 5576 5583 5542 5595 5617 5627 5582 5571 5572 5585 5550 5542 5526 5509 5491 5495 5476 5456 5443 5434 5435 5435 5433 5432 5429 5427 5426 5424 5423 5421 5416 5415 5412 5407 5402 5398 5395 5391 5385 5381 5375 5369 5362
5571 5550 5573 5562 5578 5611 5602 5576 5568 5599 5601 5552 5540 5526 5509 5502 5490 5473 5457 5447 5435 5435 5434 5432 5431 5430 5427 5426 5426 5425 5422 5418 5415 5411 5408 5404 5400 5396 5392 5389 5383 5379 5372 5366
5616 5583 5568 5538 5562 5631 5581 5568 5591 5591 5559 5552 5536 5525 5514 5502 5490 5476 5465 5453 5443 5441 5439 5435 5432 5429 5427 5426 5427 5426 5424 5419 5417 5414 5411 5408 5403 5399 5395 5391 5388 5384 5379 5373
5623 5624 5618 5613 5635 5605 5593 5596 5583 5572 5565 5549 5539 5526 5517 5505 5494 5482 5471 5458 5447 5444 5441 5436 5433 5433 5432 5428 5428 5427 5424 5421 5419 5417 5415 5412 5408 5404 5398 5394 5392 5389 5385 5381
5613 5600 5608 5618 5614 5605 5595 5586 5578 5571 5564 5549 5540 5528 5519 5508 5497 5486 5473 5464 5454 5453 5443 5437 5436 5436 5433 5432 5431 5430 5427 5424 5421 5419 5417 5416 5414 5409 5404 5399 5395 5392 5389 5385
5616 5602 5607 5609 5612 5603 5597 5590 5583 5571 5558 5549 5538 5530 5522 5509 5499 5491 5480 5468 5462 5457 5447 5438 5437 5437 5434 5433 5433 5431 5429 5428 5425 5421 5419 5419 5418 5414 5409 5405 5400 5396 5391 5387
5606 5629 5635 5651 5645 5640 5629 5605 5586 5572 5561 5550 5542 5528 5520 5511 5502 5494 5483 5474 5468 5462 5452 5442 5437 5438 5436 5434 5434 5431 5431 5430 5426 5424 5422 5421 5419 5418 5413 5408 5406 5401 5395 5390